TimeEDT,TemperatureF,Dew PointF,Humidity,Sea Level PressureIn,VisibilityMPH,Wind Direction,Wind SpeedMPH,Gust SpeedMPH,PrecipitationIn,Events,Conditions,WindDirDegrees,DateUTC
12:15 AM,33.6,31.6,92,30.13,10.0,WNW,6.9,-,N/A,,Overcast,290,2013-10-25 04:15:00
12:35 AM,34.5,32.0,90,30.13,10.0,NW,4.6,-,N/A,,Overcast,310,2013-10-25 04:35:00
12:54 AM,36.1,33.4,90,30.13,10.0,WNW,6.9,-,N/A,,Overcast,290,2013-10-25 04:54:00
1:15 AM,36.0,33.3,90,30.14,10.0,WNW,6.9,-,N/A,,Overcast,290,2013-10-25 05:15:00
1:35 AM,36.0,33.4,91,30.14,10.0,WNW,4.6,-,N/A,,Overcast,290,2013-10-25 05:35:00
1:54 AM,36.1,33.4,90,30.15,10.0,West,5.8,-,N/A,,Overcast,280,2013-10-25 05:54:00
2:15 AM,36.1,33.4,90,30.15,10.0,West,4.6,-,N/A,,Overcast,280,2013-10-25 06:15:00
2:35 AM,36.1,33.3,89,30.15,10.0,WNW,3.5,-,N/A,,Overcast,300,2013-10-25 06:35:00
2:54 AM,36.1,33.3,89,30.16,10.0,Calm,Calm,-,N/A,Snow,Light Snow,0,2013-10-25 06:54:00
3:15 AM,36.1,33.4,90,30.17,10.0,Calm,Calm,-,N/A,,Overcast,0,2013-10-25 07:15:00
3:35 AM,36.1,33.4,90,30.17,10.0,Calm,Calm,-,N/A,,Overcast,0,2013-10-25 07:35:00
3:54 AM,33.8,31.5,91,30.17,10.0,West,3.5,-,N/A,,Overcast,260,2013-10-25 07:54:00
4:15 AM,36.0,33.4,91,30.17,10.0,WNW,4.6,-,N/A,Snow,Light Snow,300,2013-10-25 08:15:00
4:35 AM,36.1,33.4,90,30.17,10.0,NW,3.5,-,N/A,,Overcast,320,2013-10-25 08:35:00
4:54 AM,36.0,33.3,90,30.17,10.0,Calm,Calm,-,N/A,,Overcast,0,2013-10-25 08:54:00
5:15 AM,33.8,31.5,91,30.17,10.0,West,3.5,-,N/A,,Overcast,260,2013-10-25 09:15:00
5:34 AM,33.8,31.6,92,30.18,10.0,SW,4.6,-,N/A,,Overcast,230,2013-10-25 09:34:00
5:55 AM,33.8,31.6,92,30.19,10.0,WSW,5.8,-,N/A,,Overcast,240,2013-10-25 09:55:00
6:15 AM,32.4,30.7,94,30.20,10.0,WSW,4.6,-,N/A,,Scattered Clouds,240,2013-10-25 10:15:00
6:34 AM,32.0,29.8,92,30.20,10.0,WSW,4.6,-,N/A,,Clear,240,2013-10-25 10:34:00
6:55 AM,31.5,29.1,91,30.21,10.0,West,3.5,-,N/A,,Clear,270,2013-10-25 10:55:00
7:15 AM,31.5,29.1,91,30.21,10.0,Calm,Calm,-,N/A,,Clear,0,2013-10-25 11:15:00
7:34 AM,31.5,29.3,92,30.21,10.0,Calm,Calm,-,N/A,,Clear,0,2013-10-25 11:34:00
7:55 AM,31.5,29.3,92,30.21,3.0,Calm,Calm,-,N/A,,Clear,0,2013-10-25 11:55:00
8:15 AM,29.1,26.8,91,30.21,0.2,Calm,Calm,-,N/A,Fog,Light Freezing Fog,0,2013-10-25 12:15:00
8:34 AM,31.5,29.3,92,30.22,0.5,SW,3.5,-,N/A,Fog,Light Freezing Fog,220,2013-10-25 12:34:00
8:55 AM,31.5,29.3,92,30.23,0.2,SW,4.6,-,N/A,Fog,Light Freezing Fog,230,2013-10-25 12:55:00
9:15 AM,32.4,30.9,94,30.23,2.0,Calm,Calm,-,N/A,,Mostly Cloudy,0,2013-10-25 13:15:00
9:35 AM,33.8,32.0,93,30.23,10.0,SW,3.5,-,N/A,,Clear,220,2013-10-25 13:35:00
9:55 AM,36.1,34.0,92,30.23,10.0,SW,5.8,-,N/A,,Clear,230,2013-10-25 13:55:00
10:15 AM,36.1,33.3,89,30.23,10.0,SW,5.8,-,N/A,,Clear,230,2013-10-25 14:15:00
10:34 AM,38.7,32.9,80,30.23,10.0,WSW,8.1,-,N/A,,Scattered Clouds,250,2013-10-25 14:34:00
10:55 AM,41.2,34.0,76,30.23,10.0,WSW,9.2,-,N/A,,Mostly Cloudy,250,2013-10-25 14:55:00
11:15 AM,41.2,32.0,70,30.23,10.0,West,11.5,-,N/A,,Scattered Clouds,270,2013-10-25 15:15:00
11:34 AM,41.5,31.6,68,30.22,10.0,West,9.2,-,N/A,,Clear,260,2013-10-25 15:34:00
11:55 AM,42.4,30.6,63,30.21,10.0,West,10.4,17.3,N/A,,Scattered Clouds,260,2013-10-25 15:55:00
12:15 PM,43.3,30.2,60,30.21,10.0,West,12.7,18.4,N/A,,Scattered Clouds,260,2013-10-25 16:15:00
12:34 PM,43.9,30.0,58,30.21,10.0,WSW,15.0,20.7,N/A,,Scattered Clouds,240,2013-10-25 16:34:00
12:55 PM,42.3,28.0,57,30.20,10.0,WSW,11.5,17.3,N/A,,Mostly Cloudy,250,2013-10-25 16:55:00
1:15 PM,41.2,28.8,61,30.20,10.0,West,16.1,19.6,N/A,,Overcast,260,2013-10-25 17:15:00
1:34 PM,41.2,28.4,60,30.19,10.0,WSW,11.5,16.1,N/A,,Overcast,250,2013-10-25 17:34:00
1:55 PM,43.7,28.8,56,30.18,10.0,West,9.2,18.4,N/A,,Mostly Cloudy,260,2013-10-25 17:55:00
2:15 PM,41.2,27.1,57,30.18,10.0,West,15.0,23.0,N/A,,Overcast,260,2013-10-25 18:15:00
2:34 PM,42.4,26.4,53,30.17,10.0,WSW,10.4,17.3,N/A,,Overcast,250,2013-10-25 18:34:00
2:55 PM,41.5,26.8,56,30.17,10.0,WSW,12.7,19.6,N/A,,Mostly Cloudy,240,2013-10-25 18:55:00
3:15 PM,42.1,25.3,52,30.15,10.0,WSW,12.7,16.1,N/A,,Overcast,250,2013-10-25 19:15:00
3:34 PM,41.2,24.8,52,30.14,10.0,WSW,12.7,24.2,N/A,,Overcast,240,2013-10-25 19:34:00
3:55 PM,41.2,25.9,55,30.13,10.0,SW,11.5,16.1,N/A,,Overcast,230,2013-10-25 19:55:00
4:15 PM,41.2,25.5,54,30.13,10.0,SW,15.0,18.4,N/A,,Overcast,230,2013-10-25 20:15:00
4:34 PM,41.2,25.3,53,30.12,10.0,WSW,16.1,23.0,N/A,,Overcast,240,2013-10-25 20:34:00
4:55 PM,41.2,25.9,55,30.11,10.0,SW,16.1,25.3,N/A,,Overcast,220,2013-10-25 20:55:00
5:15 PM,41.2,25.7,54,30.10,10.0,SW,16.1,23.0,N/A,,Overcast,230,2013-10-25 21:15:00
5:34 PM,40.3,24.8,54,30.09,10.0,SW,13.8,20.7,N/A,,Overcast,220,2013-10-25 21:34:00
5:55 PM,39.2,24.8,56,30.07,10.0,SW,12.7,19.6,N/A,,Overcast,220,2013-10-25 21:55:00
6:15 PM,39.0,24.6,56,30.06,10.0,SSW,13.8,-,N/A,,Overcast,210,2013-10-25 22:15:00
6:34 PM,38.7,24.8,58,30.05,10.0,SSW,10.4,-,N/A,,Overcast,200,2013-10-25 22:34:00
6:55 PM,38.7,25.0,58,30.03,10.0,SSW,12.7,17.3,N/A,,Scattered Clouds,200,2013-10-25 22:55:00
7:15 PM,38.7,25.7,60,30.02,10.0,South,8.1,-,N/A,,Scattered Clouds,190,2013-10-25 23:15:00
7:34 PM,38.7,26.4,61,30.02,10.0,South,10.4,16.1,N/A,,Scattered Clouds,190,2013-10-25 23:34:00
7:55 PM,38.7,27.0,63,29.99,10.0,South,10.4,17.3,N/A,,Scattered Clouds,180,2013-10-25 23:55:00
8:15 PM,38.7,27.5,64,29.98,10.0,South,9.2,-,N/A,,Scattered Clouds,190,2013-10-26 00:15:00
8:34 PM,38.7,28.2,66,29.96,10.0,South,10.4,17.3,N/A,,Mostly Cloudy,180,2013-10-26 00:34:00
8:55 PM,38.7,28.4,67,29.95,10.0,South,10.4,17.3,N/A,,Overcast,180,2013-10-26 00:55:00
9:15 PM,38.7,28.9,68,29.94,10.0,South,6.9,-,N/A,,Overcast,190,2013-10-26 01:15:00
9:34 PM,39.2,29.7,69,29.93,10.0,South,9.2,19.6,N/A,,Drizzle,190,2013-10-26 01:34:00
9:55 PM,39.2,30.2,70,29.93,10.0,SSW,11.5,-,N/A,,Overcast,200,2013-10-26 01:55:00
10:15 PM,41.2,31.3,68,29.91,10.0,SSW,11.5,16.1,N/A,,Overcast,200,2013-10-26 02:15:00
10:35 PM,41.2,31.1,67,29.91,10.0,SSW,11.5,-,N/A,,Overcast,200,2013-10-26 02:35:00
10:55 PM,41.2,30.9,67,29.89,10.0,SSW,13.8,18.4,N/A,,Overcast,210,2013-10-26 02:55:00
11:14 PM,42.4,30.9,64,29.86,10.0,SSW,15.0,20.7,N/A,,Overcast,200,2013-10-26 03:14:00
11:35 PM,42.4,31.6,66,29.86,10.0,SSW,17.3,21.9,N/A,Rain,Rain,210,2013-10-26 03:35:00
11:55 PM,42.4,32.9,69,29.85,10.0,SW,26.5,38.0,N/A,Rain,Light Rain,220,2013-10-26 03:55:00